EW9744 Weather Reports


Display with metric or nautical units.
time (UTC)temp
F
wind
direction
speed
MPH
gust
MPH
rain 1hr
in
rain 24hr
in
rain mn
in
humidity
%
barometer
mb
20260905091536 49 292 1.0 3.0 0.00 0.05 0.00 94 1019.1
20260905090115 50 292 2.0 3.0 0.00 0.05 0.00 94 1019.0
20260905084535 50 300 2.0 4.0 0.00 0.05 0.00 94 1019.0
20260905083111 50 315 2.0 3.0 0.00 0.05 0.00 94 1018.9
20260905081536 50 315 2.0 4.0 0.00 0.05 0.00 93 1018.9
20260905080039 50 296 2.0 4.0 0.00 0.05 0.00 93 1018.8
20260905074536 51 290 2.0 4.0 0.00 0.05 0.00 92 1018.5
20260905073031 51 236 2.0 5.0 0.00 0.05 0.00 92 1018.5
20260905071530 51 239 4.0 6.0 0.00 0.05 0.00 91 1018.4
20260905070107 52 166 2.0 5.0 0.01 0.05 0.00 89 1018.3
20260905063031 52 279 5.0 9.0 0.01 0.05 0.05 89 1018.0
20260905061532 52 266 4.0 7.0 0.01 0.05 0.04 88 1018.3
20260905054609 53 261 5.0 7.0 0.00 0.04 0.04 86 1018.2
20260905053105 53 257 4.0 6.0 0.00 0.04 0.04 86 1018.2
20260905050029 52 263 4.0 6.0 0.00 0.04 0.04 88 1018.2
20260905044638 51 274 5.0 6.0 0.00 0.04 0.04 89 1018.1
20260905043031 51 284 4.0 6.0 0.00 0.04 0.04 89 1018.0
20260905041604 51 281 4.0 5.0 0.00 0.04 0.04 89 1018.0
20260905040031 51 270 3.0 4.0 0.00 0.04 0.04 88 1017.9
20260905034606 51 270 2.0 4.0 0.00 0.04 0.04 88 1017.8
20260905033030 52 270 1.0 3.0 0.00 0.04 0.04 87 1017.6
20260905031530 52 288 2.0 3.0 0.00 0.04 0.04 86 1017.5
20260905030031 53 295 3.0 4.0 0.00 0.04 0.04 85 1017.4
20260905024529 54 296 4.0 6.0 0.00 0.04 0.04 84 1017.4
20260905023104 54 304 4.0 6.0 0.00 0.04 0.04 83 1017.4
20260905021532 55 306 4.0 7.0 0.00 0.04 0.04 82 1017.4
20260905020031 56 292 4.0 6.0 0.00 0.04 0.04 83 1017.3
20260905004531 61 25 1.0 4.0 0.00 0.04 0.04 78 1016.8
20260905001529 60 248 0.0 2.0 0.00 0.04 0.04 82 1016.5
20260905000030 59 280 1.0 4.0 0.00 0.04 0.04 84 1016.6
20260904234531 59 299 2.0 4.0 0.00 0.04 0.04 84 1016.5
20260904233029 59 292 1.0 3.0 0.00 0.04 0.04 85 1016.5
20260904231532 58 285 2.0 5.0 0.03 0.04 0.04 87 1016.5
20260904230030 57 324 1.0 4.0 0.03 0.04 0.04 85 1016.6
20260904224531 58 317 1.0 4.0 0.03 0.04 0.04 80 1016.6
20260904223030 61 211 2.0 5.0 0.03 0.04 0.01 70 1016.6
20260904221608 62 165 1.0 5.0 0.00 0.01 0.01 65 1016.3
20260904220028 61 145 1.0 4.0 0.00 0.01 0.01 68 1016.3
20260904214533 60 284 1.0 5.0 0.00 0.01 0.01 71 1016.1
20260904213039 60 294 2.0 4.0 0.00 0.01 0.01 72 1016.1
20260904213031 60 344 1.0 3.0 0.00 0.01 0.01 70 1016.1
20260904210028 60 45 0.0 2.0 0.00 0.01 0.01 67 1016.1
20260904203029 63 77 2.0 6.0 0.00 0.01 0.01 62 1016.1
20260904201529 61 56 2.0 9.0 0.00 0.01 0.01 65 1016.1
20260904200028 61 17 2.0 7.0 0.00 0.01 0.01 66 1016.2
20260904194531 60 29 3.0 7.0 0.00 0.01 0.01 69 1016.3
20260904193106 59 47 2.0 5.0 0.00 0.01 0.01 70 1016.4
20260904190030 58 36 2.0 5.0 0.00 0.01 0.01 73 1016.5
20260904184530 58 44 1.0 4.0 0.00 0.01 0.01 75 1016.5
20260904183031 57 47 1.0 5.0 0.00 0.01 0.01 79 1016.3
20260904181604 55 65 0.0 3.0 0.00 0.01 0.01 82 1016.3
20260904180029 54 45 1.0 3.0 0.00 0.01 0.01 84 1016.2
20260904174529 53 39 2.0 3.0 0.00 0.01 0.01 85 1016.2
20260904171527 52 5 2.0 4.0 0.00 0.01 0.01 88 1016.1
20260904170029 52 50 1.0 4.0 0.00 0.01 0.01 90 1016.0
20260904164605 51 67 0.0 3.0 0.00 0.01 0.01 91 1015.9
20260904163032 52 49 2.0 4.0 0.00 0.01 0.01 92 1015.8
20260904161527 51 90 1.0 2.0 0.00 0.01 0.01 93 1015.8
20260904160105 50 270 0.0 2.0 0.00 0.01 0.01 94 1015.8
20260904154529 50 289 1.0 3.0 0.00 0.01 0.01 95 1015.7
20260904153030 49 357 1.0 3.0 0.00 0.01 0.01 95 1015.6
20260904151533 49 23 1.0 4.0 0.01 0.01 0.01 96 1015.5
20260904150105 48 81 1.0 3.0 0.01 0.01 0.01 96 1015.3
20260904144607 48 355 0.0 2.0 0.01 0.01 0.01 96 1015.2
20260904143034 48 360 0.0 0.0 0.01 0.01 0.00 96 1015.1
20260904140104 47 360 0.0 1.0 0.00 0.00 0.00 95 1014.7
20260904130029 47 270 1.0 2.0 0.00 0.00 0.00 94 1014.2
20260904124531 48 322 1.0 3.0 0.00 0.00 0.00 93 1014.2
20260904123143 48 48 1.0 4.0 0.00 0.00 0.00 93 1014.2
20260904121532 48 271 3.0 6.0 0.00 0.00 0.00 94 1014.0
20260904120033 47 283 4.0 5.0 0.00 0.00 0.00 94 1013.9
20260904114530 47 282 4.0 5.0 0.00 0.00 0.00 94 1013.8
20260904113030 48 292 1.0 3.0 0.00 0.00 0.00 93 1013.7
20260904111531 48 299 3.0 4.0 0.00 0.00 0.00 93 1013.7
20260904110028 48 315 2.0 3.0 0.00 0.00 0.00 93 1013.6
20260904104607 48 315 0.0 2.0 0.00 0.00 0.00 93 1013.5
20260904103031 48 312 0.0 2.0 0.00 0.00 0.00 92 1013.4
20260904101531 47 292 1.0 3.0 0.00 0.00 0.00 92 1013.2
20260904100031 47 292 3.0 5.0 0.00 0.00 0.00 92 1013.1
20260904094530 47 292 2.0 4.0 0.00 0.00 0.00 92 1013.1
20260904093109 47 295 1.0 4.0 0.00 0.00 0.00 92 1013.0